GW2216 Weather Reports


time (UTC)temp
C
wind
direction
speed
KPH
gust
KPH
rain 1hr
cm
rain 24hr
cm
rain mn
cm
humidity
%
barometer
mb
20260506030039 15 247 4.8 17.7 0.00 0.38 0.03 56 1012.7
20260506024553 15 228 6.4 16.1 0.00 0.38 0.03 55 1012.5
20260506023030 16 215 9.7 17.7 0.00 0.38 0.03 51 1012.4
20260506021531 17 217 6.4 12.9 0.00 0.38 0.03 48 1012.3
20260506020031 18 290 1.6 12.9 0.00 0.38 0.03 41 1012.1
20260506014531 19 326 4.8 12.9 0.00 0.76 0.03 39 1012.1
20260506013040 20 316 3.2 14.5 0.00 0.76 0.03 38 1012.0
20260506011533 20 331 8.0 16.1 0.00 0.76 0.03 37 1012.1
20260506010032 20 303 6.4 17.7 0.00 0.76 0.03 37 1012.0
20260506004532 20 36 4.8 19.3 0.00 1.07 0.03 34 1012.1
20260506003035 20 5 4.8 14.5 0.00 1.07 0.03 37 1012.0
20260506001529 19 352 9.7 17.7 0.00 1.07 0.03 38 1012.1
20260506000029 21 5 4.8 19.3 0.00 1.07 0.03 37 1012.1
20260505234536 21 71 8.0 19.3 0.00 1.07 0.03 34 1012.0
20260505233030 18 352 4.8 14.5 0.00 1.07 0.03 40 1012.0
20260505231532 19 301 6.4 22.5 0.00 1.07 0.03 40 1012.2
20260505230049 18 53 1.6 9.7 0.00 1.07 0.03 40 1012.4
20260505224532 18 122 3.2 12.9 0.00 1.07 0.03 44 1012.6
20260505223029 18 236 1.6 8.0 0.00 1.07 0.03 41 1012.8
20260505221535 19 0 3.2 17.7 0.00 1.07 0.03 47 1012.9
20260505220033 18 309 3.2 11.3 0.00 1.07 0.03 49 1013.2
20260505214531 18 226 8.0 16.1 0.00 1.07 0.03 46 1013.3
20260505213047 18 162 1.6 12.9 0.00 1.07 0.03 44 1013.4
20260505211531 18 317 1.6 12.9 0.00 1.07 0.03 50 1013.6
20260505210032 17 63 4.8 16.1 0.00 1.07 0.03 49 1013.8
20260505204531 17 43 3.2 12.9 0.00 1.09 0.03 51 1013.8
20260505203041 16 0 0.0 14.5 0.00 1.09 0.03 52 1013.9
20260505201529 16 0 4.8 14.5 0.00 1.09 0.03 55 1014.0
20260505200034 16 0 1.6 12.9 0.00 1.09 0.03 57 1014.0
20260505194530 15 22 4.8 14.5 0.00 1.09 0.03 67 1014.1
20260505193031 15 57 4.8 14.5 0.00 1.09 0.03 68 1014.0
20260505191532 13 22 6.4 16.1 0.00 1.09 0.03 71 1014.0
20260505190030 14 313 1.6 11.3 0.00 1.09 0.03 72 1014.0
20260505184529 14 42 0.0 11.3 0.00 1.12 0.03 76 1013.9
20260505183029 13 0 3.2 11.3 0.00 1.12 0.03 78 1014.0
20260505181531 12 77 3.2 12.9 0.00 1.12 0.03 77 1014.1
20260505180033 11 0 0.0 8.0 0.00 1.12 0.03 79 1014.0
20260505174532 11 0 0.0 6.4 0.00 1.12 0.03 79 1013.8
20260505173040 10 119 0.0 4.8 0.00 1.12 0.03 84 1013.7
20260505171531 9 196 0.0 6.4 0.00 1.12 0.03 85 1013.6
20260505170033 9 174 1.6 4.8 0.00 1.12 0.03 86 1013.6
20260505164547 8 109 0.0 6.4 0.00 1.12 0.03 89 1013.5
20260505163031 8 159 0.0 6.4 0.00 1.12 0.03 89 1013.4
20260505161530 8 106 0.0 6.4 0.00 1.12 0.03 90 1013.2
20260505153047 7 142 0.0 6.4 0.00 1.12 0.03 90 1012.9
20260505151600 7 125 0.0 4.8 0.00 1.12 0.03 90 1012.7
20260505124530 6 0 0.0 3.2 0.00 1.12 0.03 93 1011.3
20260505123034 6 332 0.0 3.2 0.00 1.12 0.03 93 1011.2
20260505121536 6 0 0.0 0.0 0.00 1.12 0.03 93 1011.2
20260505120030 6 20 1.6 3.2 0.00 1.12 0.03 93 1011.2
20260505114538 6 0 0.0 4.8 0.00 1.12 0.03 93 1011.2
20260505113028 6 0 0.0 4.8 0.00 1.12 0.03 93 1011.1
20260505111536 6 0 0.0 0.0 0.03 1.12 0.03 94 1011.0
20260505101532 6 249 1.6 4.8 0.00 1.09 0.00 93 1011.3
20260505100041 6 0 0.0 4.8 0.00 1.09 0.00 94 1011.4
20260505094529 5 0 0.0 0.0 0.00 1.09 0.00 94 1011.5
20260505093029 5 0 0.0 0.0 0.00 1.09 0.00 93 1011.6
20260505091547 5 0 0.0 3.2 0.00 1.09 0.00 93 1011.6
20260505090049 6 0 0.0 0.0 0.00 1.09 0.00 93 1011.6
20260505084537 6 0 0.0 0.0 0.00 1.09 0.00 93 1011.8
20260505083039 6 0 0.0 4.8 0.00 1.09 0.00 93 1012.1
20260505081548 6 0 0.0 0.0 0.00 1.09 0.00 92 1012.2
20260505080039 6 94 0.0 4.8 0.00 1.09 0.00 92 1011.9
20260505074530 6 242 3.2 6.4 0.03 1.09 0.00 92 1011.5
20260505073030 6 228 3.2 6.4 0.05 1.09 0.00 92 1012.3
20260505071531 6 0 0.0 0.0 0.05 1.09 0.00 92 1012.4
20260505070031 6 0 0.0 6.4 0.05 1.09 0.00 91 1012.1
20260505064533 6 146 3.2 9.7 0.03 1.07 1.07 92 1011.7
20260505063039 6 179 4.8 8.0 0.00 1.04 1.04 92 1011.4
20260505061534 6 138 3.2 9.7 0.03 1.04 1.04 92 1011.5
20260505060032 6 147 4.8 11.3 0.03 1.04 1.04 92 1011.4
20260505054532 6 208 4.8 9.7 0.03 1.04 1.04 92 1011.5
20260505053032 6 180 4.8 8.0 0.03 1.04 1.04 92 1011.6
20260505051532 6 0 0.0 4.8 0.00 1.02 1.02 92 1011.9
20260505041531 6 177 0.0 11.3 0.10 1.02 1.02 92 1011.5
20260505040038 6 352 8.0 17.7 0.28 1.02 1.02 91 1011.6
20260505034532 7 74 1.6 6.4 0.28 1.02 1.02 91 1011.0
20260505033040 6 217 11.3 22.5 0.25 0.99 0.99 91 1009.9
20260505031529 6 219 8.0 12.9 0.15 0.89 0.89 91 1011.4